2023/03/02 00:00:00,98.2, 1.3
2023/03/02 00:10:00,98.2, 1.2
2023/03/02 00:20:00,98.2, 1.4
2023/03/02 00:30:00,98.2, 1.2
2023/03/02 00:40:00,98.2, 1.2
2023/03/02 00:50:00,98.2, 1.0
2023/03/02 01:00:00,98.3, 1.6
2023/03/02 01:10:00,98.3, 1.2
2023/03/02 01:20:00,98.2, 1.4
2023/03/02 01:30:00,98.2, 0.9
2023/03/02 01:40:00,98.2, 1.3
2023/03/02 01:50:00,98.1, 1.1
2023/03/02 02:00:00,98.1, 1.2
2023/03/02 02:10:00,98.0, 1.1
2023/03/02 02:20:00,98.0, 1.1
2023/03/02 02:30:00,98.0, 1.2
2023/03/02 02:40:00,98.0, 1.5
2023/03/02 02:50:00,98.0, 1.3
2023/03/02 03:00:00,98.0, 1.4
2023/03/02 03:10:00,98.0, 1.2
2023/03/02 03:20:00,98.0, 1.0
2023/03/02 03:30:00,98.0, 0.9
2023/03/02 03:40:00,98.0, 1.1
2023/03/02 03:50:00,98.1, 0.7
2023/03/02 04:00:00,98.2, 1.2
2023/03/02 04:10:00,98.1, 0.7
2023/03/02 04:20:00,98.2, 0.7
2023/03/02 04:30:00,98.1, 0.7
2023/03/02 04:40:00,98.2, 0.5
2023/03/02 04:50:00,98.2, 0.6
2023/03/02 05:00:00,98.3, 0.5
2023/03/02 05:10:00,98.5, 0.3
2023/03/02 05:20:00,98.8, 0.4
2023/03/02 05:30:00,99.2, 0.3
2023/03/02 05:40:00,99.4,-0.1
2023/03/02 05:50:00,99.9, 0.1
2023/03/02 06:00:00,99.8,-0.3
2023/03/02 06:10:00,100.0, 0.0
2023/03/02 06:20:00,100.3,-0.2
2023/03/02 06:30:00,100.2, 0.0
2023/03/02 06:40:00,100.6, 0.0
2023/03/02 06:50:00,101.1, 0.1
2023/03/02 07:00:00,101.4,-0.3
2023/03/02 07:10:00,102.1,-0.3
2023/03/02 07:20:00,102.3,-0.3
2023/03/02 07:30:00,102.7, 0.1
2023/03/02 07:40:00,103.0,-0.4
2023/03/02 07:50:00,103.5,-0.6
2023/03/02 08:00:00,104.0, 0.2
2023/03/02 08:10:00,104.4, 0.0
2023/03/02 08:20:00,104.8,-0.4
2023/03/02 08:30:00,105.5,-0.1
2023/03/02 08:40:00,105.9, 0.0
2023/03/02 08:50:00,106.0,-0.4
2023/03/02 09:00:00,106.6,-0.1
2023/03/02 09:10:00,106.7,-0.3
2023/03/02 09:20:00,106.9,-0.2
2023/03/02 09:30:00,107.3,-0.4
2023/03/02 09:40:00,107.7, 0.1
2023/03/02 09:50:00,107.9, 0.5
2023/03/02 10:00:00,107.9, 0.6
2023/03/02 10:10:00,108.5,-0.1
2023/03/02 10:20:00,109.1, 0.2
2023/03/02 10:30:00,108.8, 0.7
2023/03/02 10:40:00,109.1, 0.4
2023/03/02 10:50:00,109.3, 0.1
2023/03/02 11:00:00,109.6, 0.6
2023/03/02 11:10:00,109.6, 0.1
2023/03/02 11:20:00,109.7, 0.0
2023/03/02 11:30:00,109.8, 0.1
2023/03/02 11:40:00,110.1,-0.1
2023/03/02 11:50:00,110.1, 1.5
2023/03/02 12:00:00,109.9, 3.4
2023/03/02 12:10:00,110.4, 2.0
2023/03/02 12:20:00,110.8, 1.6
2023/03/02 12:30:00,110.5, 2.1
2023/03/02 12:40:00,110.5, 1.1
2023/03/02 12:50:00,110.2, 0.2
2023/03/02 13:00:00,110.3, 0.5
2023/03/02 13:10:00,110.8, 0.5
2023/03/02 13:20:00,111.0, 0.5
2023/03/02 13:30:00,111.0, 1.5
2023/03/02 13:40:00,111.1, 2.5
2023/03/02 13:50:00,111.7, 1.3
2023/03/02 14:00:00,111.7, 1.1
2023/03/02 14:10:00,111.7, 1.7
2023/03/02 14:20:00,112.2, 0.5
2023/03/02 14:30:00,112.4,-0.3
2023/03/02 14:40:00,112.5,-0.4
2023/03/02 14:50:00,112.2, 0.1
2023/03/02 15:00:00,112.0, 0.0
2023/03/02 15:10:00,112.3, 0.4
2023/03/02 15:20:00,112.5, 0.3
2023/03/02 15:30:00,112.5, 0.2
2023/03/02 15:40:00,112.5, 0.0
2023/03/02 15:50:00,112.3,-0.4
2023/03/02 16:00:00,112.2,-0.4
2023/03/02 16:10:00,112.1,-1.0
2023/03/02 16:20:00,112.0,-0.4
2023/03/02 16:30:00,111.8, 0.3
2023/03/02 16:40:00,112.0,-0.5
2023/03/02 16:50:00,112.1,-1.2
2023/03/02 17:00:00,112.7,-1.4
2023/03/02 17:10:00,113.2,-1.5
2023/03/02 17:20:00,113.6,-1.5
2023/03/02 17:30:00,113.8,-1.9
2023/03/02 17:40:00,114.1,-2.0
2023/03/02 17:50:00,114.2,-1.6
2023/03/02 18:00:00,114.2,-1.8
2023/03/02 18:10:00,114.2,-2.0
2023/03/02 18:20:00,114.2,-2.2
2023/03/02 18:30:00,114.1,-2.1
2023/03/02 18:40:00,114.0,-2.2
2023/03/02 18:50:00,114.2,-2.0
2023/03/02 19:00:00,113.9,-2.1
2023/03/02 19:10:00,113.8,-1.9
2023/03/02 19:20:00,114.0,-2.1
2023/03/02 19:30:00,114.0,-1.8
2023/03/02 19:40:00,113.8,-2.3
2023/03/02 19:50:00,113.8,-2.2
2023/03/02 20:00:00,113.6,-1.7
2023/03/02 20:10:00,113.8,-2.2
2023/03/02 20:20:00,114.1,-2.1
2023/03/02 20:30:00,114.5,-2.1
2023/03/02 20:40:00,114.4,-2.2
2023/03/02 20:50:00,114.5,-1.7
2023/03/02 21:00:00,114.3,-2.1
2023/03/02 21:10:00,113.9,-1.9
2023/03/02 21:20:00,114.1,-2.2
2023/03/02 21:30:00,113.9,-2.1
2023/03/02 21:40:00,113.7,-2.4
2023/03/02 21:50:00,113.5,-1.9
2023/03/02 22:00:00,113.6,-1.9
2023/03/02 22:10:00,113.6,-2.1
2023/03/02 22:20:00,113.4,-2.1
2023/03/02 22:30:00,113.3,-2.3
2023/03/02 22:40:00,113.3,-2.5
2023/03/02 22:50:00,113.3,-2.2
2023/03/02 23:00:00,113.4,-2.1
2023/03/02 23:10:00,113.5,-2.2
2023/03/02 23:20:00,113.5,-2.2
2023/03/02 23:30:00,113.6,-2.4
2023/03/02 23:40:00,113.5,-2.4
2023/03/02 23:50:00,113.5,-2.4
